Regional Weather Roundup
Issued by NWS Cleveland, OH

Home | Current Version | Previous Version | Text Only | Print | Product List | Glossary Off
Versions: 1 2 3 4 5 6 7 8 9 10 11 12 13 14 15 16 17 18 19 20 21 22 23 24 25 26 27 28 29 30 31 32 33 34 35 36 37 38 39 40 41 42 43 44 45 46 47 48 49 50

091
ASUS41 KCLE 270612
RWRCLE
OHIO REGIONAL WEATHER ROUNDUP
NATIONAL WEATHER SERVICE WILMINGTON, OH
200 AM EDT SAT MAY 27 2017

NOTE: "FAIR" INDICATES FEW OR NO CLOUDS BELOW 12,000 FEET WITH NO
SIGNIFICANT WEATHER AND/OR OBSTRUCTIONS TO VISIBILITY.

OHZ001>008-015>018-024>027-034-035-043-044-270700-
   NORTHWEST OHIO

CITY           SKY/WX    TMP DP  RH WIND       PRES   REMARKS
DEFIANCE       RAIN      59  58  96 E5        29.86F FOG
FINDLAY        LGT RAIN  62  58  86 SE6       29.85F
TOLEDO EXPRESS LGT RAIN  59  59 100 E6        29.86F FOG
TOLEDO EXEC    LGT RAIN  60  59  96 CALM      29.89F FOG
LIMA           RAIN      61  61 100 E8        29.84S FOG
$$

OHZ009>014-019>023-028>033-038-089-270700-
   NORTHEAST OHIO

CITY           SKY/WX    TMP DP  RH WIND       PRES   REMARKS
CLE-HOPKINS    MOCLDY    61  53  75 E5        29.91F
CLE-LAKEFRONT  FAIR      60  51  72 SE6       29.88F
CUY CO. ARPT   NOT AVBL
LORAIN-ELYRIA  LGT RAIN  58  52  80 S5        29.90S
ASHTABULA      FAIR      52  52 100 CALM      29.92S
AKRON-CANTON   CLOUDY    59  52  77 SE6       29.91S
WOOSTER        CLOUDY    58  55  90 SE6       29.91S
MANSFIELD      CLOUDY    60  58  92 SE5       29.90S
YOUNGSTOWN     CLOUDY    51  49  92 SE3       29.91F
$$

OHZ042-051>053-060>062-070>072-077>081-270700-
  SOUTHWEST OHIO

CITY           SKY/WX    TMP DP  RH WIND       PRES   REMARKS
CINC-COVINGTON MOCLDY    70  63  78 S6        29.83R
CINC-LUNKEN    CLOUDY    69  65  86 NE3       29.84R
HAMILTON       CLOUDY    71  65  81 CALM      29.84S
DAYTON         CLOUDY    64  63  96 SE7       29.83F
WRIGHT-PAT AFB MOCLDY    65  65 100 S6        29.83F
DAYTON GENERAL CLOUDY    67  62  84 S7        29.83F
WILMINGTON     CLOUDY    65  64  97 SE5       29.86F
$$

OHZ036-037-039>041-045>050-054>059-063>069-073>076-082>088-270700-
  CENTRAL AND SOUTHEAST OHIO

CITY           SKY/WX    TMP DP  RH WIND       PRES   REMARKS
COLUMBUS       CLOUDY    64  63  96 S7        29.87F
OSU AIRPORT    FAIR      63  63 100 S7        29.84F
BOLTON FIELD   MOCLDY    62  62  99 S8        29.85F
RICKENBACK AFB MOCLDY    61  62 100 SE5       29.86F
NEWARK         LGT RAIN  63  61  93 S9        29.85F
MARION         RAIN      61  58  90 E6        29.88R FOG
LANCASTER      FAIR      64  61  90 S8        29.88F
ZANESVILLE     RAIN      62  58  86 S8        29.90F
NEW PHILLY     CLOUDY    59  57  93 SE6       29.91F
$$




USA.gov is the U.S. government's official web portal to all federal, state and local government web resources and services.